Temperature
32 32 32 33 34 34 34 34 34 35 36 35 33 32 32 32 32 31 30 29 28 27 26 25 24 23 22 22 21 21 20 20 20 19 19 19 19 19 19 19 19 19 19 19
32 32 34 35 35 34 34 34 34 35 35 35 33 33 33 32 32 31 30 29 28 27 26 25 24 23 22 22 21 21 21 20 20 20 20 20 20 19 19 19 19 19 19 19
32 33 35 34 34 34 34 34 34 34 35 35 33 32 31 32 31 31 31 30 29 28 27 25 24 23 23 22 22 21 21 21 21 20 20 20 20 20 19 19 19 19 19 19
32 34 34 34 34 34 33 35 35 34 33 33 33 31 30 31 31 31 31 30 29 28 27 26 25 24 23 22 22 22 21 21 21 20 20 20 20 19 20 19 19 19 19 19
32 33 33 33 34 34 34 35 34 34 33 33 33 32 30 31 30 31 31 31 30 29 28 27 25 24 23 23 22 22 21 21 21 20 20 20 20 20 19 19 19 19 19 19
33 34 34 34 34 35 34 34 34 33 33 31 32 32 30 31 31 32 32 31 30 30 29 27 26 25 24 23 23 22 22 21 21 21 20 20 20 19 19 19 19 19 19 19
31 33 34 34 33 34 34 32 31 30 30 31 32 32 32 33 33 32 32 32 31 30 29 28 27 25 25 24 23 22 22 21 21 21 20 20 20 19 19 19 19 19 19 19
30 31 33 33 33 33 33 32 31 30 30 31 32 32 32 34 34 33 33 32 31 30 29 28 27 26 25 24 23 22 22 21 21 21 20 20 20 20 19 19 19 19 19 19
31 31 33 33 34 33 32 32 33 32 31 30 31 32 33 34 34 33 33 32 31 30 29 28 27 26 25 24 23 22 21 21 21 20 20 20 20 20 19 19 19 19 18 18
31 31 32 33 33 33 33 33 32 31 30 30 31 31 31 32 33 33 33 32 31 30 29 28 27 26 25 24 23 22 21 21 21 20 20 20 20 20 19 19 19 18 18 18
31 30 31 32 31 31 32 32 32 32 31 31 30 30 33 32 33 33 32 31 30 30 29 28 27 26 25 24 23 22 21 21 20 20 20 19 19 19 19 19 18 18 18 18
31 30 30 31 32 33 33 32 32 30 30 31 31 31 33 33 33 33 32 31 30 29 29 28 26 25 24 23 23 22 21 21 20 20 19 19 19 18 18 18 18 18 18 18
30 29 28 29 31 31 32 32 32 32 31 31 31 31 33 33 32 32 31 30 29 28 28 27 26 25 24 23 22 21 21 20 20 19 19 19 18 18 18 18 18 18 18 17
29 28 28 29 30 30 30 31 32 32 31 31 31 31 32 32 31 31 30 29 28 27 27 26 25 24 23 22 22 21 21 20 19 19 19 18 18 18 18 18 18 17 17 17
29 28 28 29 31 31 31 31 31 31 31 31 31 31 32 32 31 31 29 29 28 26 26 25 24 23 22 22 21 21 20 20 19 19 18 18 18 18 18 17 17 17 17 17
28 27 28 28 30 31 31 31 31 31 32 32 32 31 32 31 31 30 29 28 27 26 25 24 23 22 22 21 21 20 20 19 19 19 18 18 18 17 17 17 17 17 17 16
27 26 26 27 29 29 29 30 31 31 32 32 31 31 31 30 30 29 29 28 27 26 25 23 22 22 21 21 20 20 19 19 19 18 18 18 17 17 17 17 17 16 16 16
26 25 25 27 27 26 29 32 32 31 31 32 32 31 31 30 30 29 28 27 27 25 24 23 22 21 20 20 20 19 19 19 18 18 18 17 17 17 17 17 16 16 16 16
26 25 25 26 26 27 29 31 31 30 30 32 31 31 31 30 29 28 27 26 26 25 23 22 22 21 20 20 19 19 19 18 18 18 17 17 17 17 16 16 16 16 16 15
26 25 25 25 25 26 28 30 31 30 28 30 30 30 29 29 28 27 26 25 24 24 23 22 21 20 20 19 19 19 18 18 18 18 17 17 17 16 16 16 16 15 15 15
25 24 24 25 25 27 29 30 30 28 28 29 29 29 28 28 27 25 24 23 22 22 21 21 21 20 19 19 19 18 18 18 18 17 17 17 16 16 16 15 15 15 14 14
24 24 24 25 25 26 28 29 28 27 27 28 28 27 26 25 24 23 22 21 21 21 20 20 20 19 19 18 18 18 18 17 17 17 17 16 16 16 15 15 15 14 14 14
25 25 26 25 25 26 26 25 25 26 26 26 26 25 25 24 23 21 21 20 20 20 19 19 19 18 18 18 18 18 17 17 17 16 16 16 16 15 15 15 15 14 14 13
25 26 25 25 25 25 25 24 25 25 24 25 25 24 24 23 22 20 19 19 19 18 18 18 18 17 17 17 17 17 17 17 16 16 16 15 15 15 15 15 14 14 14 13
23 24 24 24 24 24 24 23 24 23 23 24 24 24 23 22 21 20 19 18 18 18 18 17 17 17 17 17 17 17 17 16 16 16 15 15 15 15 14 14 14 14 14 13
22 22 22 22 22 23 22 22 23 23 23 23 23 23 22 21 20 19 18 18 17 17 17 17 17 16 16 16 16 16 16 15 15 15 15 14 14 14 14 14 13 13 13 13
Wind_Speed
12 12 13 12 13 13 10 8 7 6 7 7 9 10 11 11 10 13 13 14 13 13 14 13 13 12 11 10 9 8 8 7 5 4 4 3 3 2 3 3 6 5 4 4
13 16 16 12 11 11 11 9 7 5 5 5 7 9 9 11 10 12 13 14 14 14 13 13 13 12 11 10 10 9 8 8 7 5 4 3 2 2 2 2 4 6 5 4
18 14 14 14 12 11 11 11 8 6 6 7 6 7 8 8 7 10 12 13 14 14 14 14 13 12 13 12 11 10 9 8 8 6 5 4 3 2 1 2 3 4 5 4
16 16 12 13 14 13 11 10 9 8 7 7 10 7 8 10 9 11 11 12 13 14 14 15 14 12 12 12 12 9 9 8 7 6 6 5 4 4 3 2 2 3 3 3
15 15 14 14 14 13 11 7 8 10 10 11 10 7 7 10 10 12 12 13 13 14 15 15 15 13 12 12 11 11 9 8 7 6 6 5 4 3 3 2 2 3 3 3
17 15 14 14 14 13 11 10 10 12 11 13 11 8 7 9 10 11 13 13 13 14 14 14 14 13 12 12 11 11 10 8 8 7 6 5 4 3 2 2 2 3 2 2
17 17 15 14 15 15 13 11 9 10 10 11 10 8 5 8 8 9 11 12 12 12 13 13 13 13 12 11 10 10 10 9 8 7 6 5 4 3 3 3 2 2 2 2
17 17 16 15 16 14 15 16 12 9 9 9 11 9 6 7 8 7 8 10 11 11 11 12 13 12 11 11 9 10 9 8 8 7 6 4 4 3 3 3 2 2 1 1
13 16 17 15 15 16 16 17 17 14 13 9 8 7 8 8 9 9 9 9 9 10 10 11 12 12 12 11 10 10 9 8 7 6 5 5 4 3 2 2 1 1 1 1
13 12 16 16 14 17 17 16 13 13 11 11 9 10 8 10 10 9 9 9 8 9 10 11 10 10 10 10 10 9 9 8 7 6 5 5 4 3 2 1 1 1 1 1
17 12 13 17 17 18 18 18 14 11 12 12 8 5 7 9 9 10 9 9 9 9 9 10 10 10 10 10 10 8 9 8 7 6 5 4 5 4 3 2 1 0 0 0
16 12 12 15 16 17 18 18 16 12 10 10 10 4 5 8 8 9 9 9 9 9 9 9 11 11 10 9 9 8 8 8 7 6 5 4 4 4 3 2 2 1 1 1
12 10 12 14 15 17 17 18 18 15 11 12 12 6 6 7 7 9 10 10 9 8 8 9 10 10 9 9 8 8 8 7 7 7 6 5 5 4 3 3 3 3 2 2
8 11 14 15 13 15 17 18 18 17 13 13 13 9 9 9 8 9 11 10 9 9 9 10 9 9 9 9 8 9 8 8 8 7 7 6 5 5 5 4 4 4 4 3
9 13 16 18 15 14 17 19 19 18 18 16 12 12 10 8 9 10 11 10 10 10 9 10 10 9 9 9 9 8 8 8 8 8 7 7 6 6 6 5 5 5 5 5
10 10 14 18 19 16 15 18 20 19 18 18 14 10 8 8 8 10 10 10 9 10 10 10 11 10 10 10 9 9 9 9 9 8 8 7 7 7 6 6 6 6 6 6
11 10 12 15 17 16 17 16 18 17 17 16 14 10 6 7 8 9 10 9 9 10 10 10 11 10 9 10 10 10 10 9 9 8 8 8 7 7 7 7 7 7 7 7
9 9 9 13 14 18 14 14 14 15 15 14 11 9 8 7 7 7 9 9 9 9 10 10 11 11 11 10 10 10 10 10 9 9 8 8 8 8 7 8 7 7 7 7
11 10 10 12 14 15 13 12 11 11 10 11 11 9 8 7 7 5 5 7 9 9 9 9 10 12 11 11 11 11 11 10 10 9 8 9 8 8 8 7 7 6 7 7
13 10 11 11 12 13 12 11 8 7 8 7 7 7 6 8 7 6 7 8 10 10 9 9 11 12 11 11 11 11 11 10 9 9 9 9 8 8 8 7 7 7 6 7
16 14 15 15 13 9 6 8 10 11 6 4 5 6 5 4 2 6 9 10 11 10 10 11 11 11 10 10 10 10 10 9 9 9 9 9 8 8 8 7 6 6 6 7
14 14 15 14 13 9 4 7 6 3 4 3 4 5 5 6 10 11 12 11 11 10 10 11 11 11 10 10 10 10 10 9 9 9 9 9 7 7 7 7 6 5 6 6
12 10 9 7 5 1 4 5 5 5 4 4 5 5 7 9 12 13 12 11 10 10 10 11 12 12 10 9 9 11 10 10 10 9 9 8 7 6 5 5 6 5 4 5
7 5 6 4 4 3 5 5 5 5 4 3 6 7 9 10 13 14 12 11 9 10 10 11 12 12 11 9 9 10 10 10 10 9 8 7 7 7 6 4 4 4 3 3
3 4 4 4 4 5 5 3 4 5 4 3 6 7 9 11 14 14 12 11 9 9 8 9 10 10 11 11 10 10 10 10 10 9 8 7 8 9 8 8 7 6 6 4
3 2 3 2 2 3 4 3 5 6 4 4 6 9 9 11 13 14 13 11 10 9 9 9 10 10 10 11 10 9 9 9 9 8 7 7 7 7 8 8 8 13 11 13
Wind_Direction
218 228 230 220 217 233 241 233 214 189 166 172 163 167 174 169 173 165 169 171 173 170 168 165 169 169 164 160 160 163 171 161 167 177 182 186 179 194 192 186 167 173 199 196
218 227 236 236 229 236 245 248 232 196 172 190 176 177 180 173 186 174 171 175 174 171 167 167 169 170 167 166 164 169 177 172 182 184 186 182 184 213 210 188 151 181 198 200
225 225 225 234 235 234 238 240 239 229 205 203 212 202 186 191 201 184 179 176 176 175 173 172 174 175 176 175 175 180 179 177 190 183 181 190 178 211 219 182 171 195 197 200
234 236 231 228 233 234 235 238 245 244 238 226 219 225 196 192 200 198 189 179 179 177 176 175 178 178 178 177 178 173 174 178 184 184 196 198 198 204 207 197 174 191 202 206
229 230 230 230 231 233 244 242 245 251 248 255 238 231 216 189 199 197 191 185 181 177 178 177 178 176 180 181 179 173 170 174 177 189 197 205 211 204 201 193 182 196 189 199
242 230 227 232 236 235 239 244 243 248 250 246 244 241 212 195 197 194 185 182 181 177 176 172 173 170 177 180 178 174 169 173 178 189 193 197 212 213 202 203 193 207 201 204
233 233 220 226 232 226 224 229 227 230 234 243 245 241 205 181 176 184 182 177 173 171 170 167 167 168 171 172 171 167 164 171 177 184 192 194 202 210 209 217 215 222 211 192
218 223 217 215 226 224 219 226 229 232 234 236 226 230 199 172 164 165 161 163 165 166 164 163 165 164 168 169 163 159 158 165 173 181 185 186 188 200 202 211 221 211 226 221
220 223 213 213 221 229 221 230 239 244 253 252 231 216 189 170 162 159 163 160 158 158 159 160 162 163 166 166 162 162 157 161 171 176 173 172 174 187 201 191 196 228 247 248
253 241 213 202 216 231 236 228 237 247 255 257 228 214 209 180 172 167 164 156 157 154 161 157 156 155 155 154 152 154 155 160 166 168 171 170 167 167 162 114 117 254 302 330
240 249 224 202 209 220 225 232 234 245 252 255 251 230 199 173 172 169 165 159 157 161 159 153 148 142 140 144 149 151 151 153 155 158 161 156 151 148 136 133 142 157 305 325
230 243 239 215 209 226 228 231 230 234 246 260 263 239 149 154 163 163 157 147 146 150 149 144 138 134 137 140 144 147 148 149 148 148 144 140 133 133 134 130 118 104 84 75
223 240 242 221 208 213 232 229 233 235 240 246 251 213 158 146 157 155 148 139 133 136 135 130 128 130 132 135 135 137 139 140 140 140 139 132 130 127 124 110 93 80 72 67
236 234 243 233 214 204 220 232 229 232 232 234 237 210 178 159 157 151 138 134 137 136 131 127 123 123 123 125 127 130 132 133 130 129 131 126 121 113 104 94 87 82 76 69
231 232 242 257 256 226 215 225 230 231 235 238 232 214 198 174 162 146 139 144 145 139 138 133 131 128 127 125 125 128 129 126 127 126 122 116 111 103 99 93 87 80 76 77
225 245 241 248 256 256 232 221 227 230 233 236 241 235 201 168 157 145 148 157 156 152 149 142 137 135 135 134 134 131 127 125 123 123 120 115 112 105 100 95 88 85 80 78
214 234 244 239 242 250 242 232 226 227 232 235 233 228 185 176 160 150 151 159 159 157 152 148 145 142 139 139 135 134 131 128 125 122 119 117 114 112 110 104 96 93 89 83
221 227 240 245 237 237 240 234 232 230 231 232 225 210 190 172 157 160 163 162 158 155 149 152 146 142 140 137 135 134 132 130 127 125 122 119 115 112 106 101 99 96 94 90
214 219 234 239 236 232 235 230 224 226 227 225 213 206 196 165 154 155 138 140 141 138 137 142 141 140 138 138 137 135 133 131 128 123 119 116 117 115 111 108 104 101 99 95
206 213 232 238 241 233 226 220 218 225 224 220 208 188 183 187 196 167 137 133 127 124 128 136 139 137 135 135 134 133 130 128 125 122 118 116 115 113 110 108 105 102 102 102
201 206 222 237 240 245 232 201 210 220 204 182 190 173 180 212 158 120 123 121 116 116 120 127 127 127 128 129 130 128 123 120 118 116 113 112 113 112 111 108 106 108 104 101
203 204 216 232 237 231 238 211 201 132 92 118 151 151 134 115 117 114 112 112 118 123 128 128 122 120 121 124 123 120 115 113 112 113 111 109 109 114 114 112 109 110 114 113
213 214 210 219 222 50 61 79 90 99 100 112 128 133 130 128 125 121 119 118 123 127 130 128 125 123 122 123 124 121 117 115 113 112 112 112 109 103 108 117 123 130 135 126
213 233 218 189 173 145 103 105 102 94 102 111 133 142 139 139 132 127 126 125 126 126 125 128 129 129 126 124 120 119 122 123 123 122 120 118 115 106 90 84 89 98 98 106
221 211 218 192 160 137 116 122 120 114 117 126 132 131 137 135 132 130 128 130 127 122 124 127 129 131 130 127 125 127 129 130 130 129 126 122 114 106 89 74 55 67 52 57
308 260 211 173 139 155 144 152 120 121 129 126 123 119 124 125 127 127 128 129 127 130 130 128 128 129 128 128 128 130 133 136 136 138 139 135 129 124 120 108 86 57 65 67
Height
1486 1486 1485 1480 1477 1476 1475 1479 1482 1477 1472 1479 1487 1493 1494 1498 1501 1505 1510 1514 1519 1523 1527 1531 1534 1536 1538 1540 1542 1543 1545 1546 1548 1550 1551 1552 1553 1554 1555 1555 1555 1556 1556 1557
1483 1484 1476 1472 1471 1473 1476 1481 1480 1475 1472 1479 1486 1490 1490 1494 1499 1502 1507 1511 1516 1521 1525 1529 1532 1534 1537 1538 1540 1542 1543 1545 1547 1549 1550 1551 1553 1554 1554 1555 1555 1555 1556 1556
1481 1475 1471 1472 1474 1478 1479 1481 1480 1480 1476 1478 1487 1495 1494 1494 1497 1500 1504 1508 1512 1517 1522 1526 1529 1532 1534 1536 1538 1540 1542 1544 1546 1547 1549 1551 1551 1552 1553 1554 1554 1554 1554 1554
1475 1470 1470 1473 1475 1476 1482 1473 1474 1478 1485 1490 1488 1509 1500 1494 1497 1498 1502 1505 1509 1513 1518 1523 1526 1529 1532 1534 1536 1538 1540 1542 1544 1546 1548 1549 1550 1551 1552 1552 1552 1552 1553 1553
1474 1470 1472 1476 1474 1473 1475 1471 1475 1478 1485 1491 1486 1500 1503 1491 1498 1496 1497 1501 1505 1510 1515 1519 1523 1526 1529 1532 1534 1536 1538 1540 1542 1544 1546 1548 1549 1549 1550 1551 1551 1551 1551 1551
1470 1467 1469 1471 1470 1470 1472 1475 1478 1480 1485 1503 1491 1498 1504 1492 1491 1490 1492 1497 1502 1506 1511 1516 1520 1523 1527 1530 1533 1534 1536 1538 1540 1542 1544 1545 1547 1548 1549 1549 1549 1549 1549 1550
1476 1468 1466 1469 1473 1472 1474 1487 1503 1509 1508 1506 1485 1492 1493 1480 1480 1485 1489 1493 1498 1503 1508 1513 1517 1521 1524 1528 1530 1532 1534 1536 1538 1540 1541 1543 1544 1546 1546 1547 1547 1548 1548 1548
1482 1481 1467 1467 1472 1475 1477 1483 1503 1516 1514 1503 1489 1493 1484 1474 1478 1482 1486 1490 1496 1501 1505 1510 1514 1518 1522 1525 1528 1530 1532 1534 1536 1538 1539 1541 1542 1543 1544 1545 1546 1546 1546 1546
1473 1476 1462 1463 1466 1469 1477 1479 1474 1488 1495 1502 1495 1486 1477 1472 1476 1480 1485 1489 1494 1499 1503 1508 1512 1517 1520 1524 1526 1529 1531 1533 1535 1536 1538 1539 1540 1541 1542 1543 1544 1544 1544 1545
1463 1472 1461 1462 1467 1467 1468 1472 1479 1488 1505 1509 1498 1492 1489 1479 1477 1479 1483 1488 1493 1498 1502 1507 1511 1515 1519 1522 1525 1528 1530 1531 1533 1535 1536 1538 1538 1539 1540 1541 1541 1542 1542 1542
1462 1472 1466 1463 1470 1473 1473 1474 1475 1479 1484 1500 1507 1497 1470 1474 1474 1478 1482 1487 1493 1498 1502 1506 1510 1514 1517 1521 1524 1527 1529 1530 1532 1533 1535 1536 1537 1538 1538 1539 1539 1540 1540 1540
1463 1467 1471 1465 1460 1462 1465 1469 1473 1489 1491 1486 1493 1492 1465 1468 1472 1477 1482 1487 1492 1497 1501 1504 1508 1512 1516 1520 1523 1525 1527 1529 1530 1532 1533 1535 1536 1537 1537 1537 1538 1538 1538 1538
1463 1470 1482 1478 1471 1466 1467 1465 1467 1471 1479 1487 1492 1491 1467 1470 1473 1477 1482 1487 1492 1497 1500 1504 1508 1512 1516 1519 1522 1524 1526 1528 1530 1531 1532 1534 1535 1536 1536 1536 1537 1537 1538 1538
1464 1470 1476 1480 1471 1466 1472 1468 1465 1471 1482 1484 1482 1481 1472 1472 1475 1478 1483 1488 1493 1498 1501 1505 1508 1512 1515 1518 1521 1524 1526 1528 1529 1530 1532 1533 1534 1535 1536 1536 1537 1537 1538 1538
1465 1472 1470 1464 1456 1456 1463 1466 1465 1468 1470 1476 1473 1472 1471 1471 1475 1479 1484 1489 1494 1498 1502 1505 1508 1512 1515 1518 1521 1523 1526 1527 1529 1530 1532 1533 1534 1535 1536 1537 1537 1538 1538 1538
1467 1472 1471 1470 1460 1457 1459 1460 1462 1463 1464 1466 1467 1468 1464 1469 1474 1479 1485 1489 1493 1498 1502 1505 1508 1512 1515 1517 1520 1523 1525 1527 1529 1530 1532 1533 1535 1536 1537 1537 1538 1538 1539 1539
1469 1475 1478 1475 1465 1463 1469 1459 1459 1460 1459 1461 1468 1468 1466 1471 1474 1480 1485 1489 1493 1497 1501 1505 1508 1511 1514 1517 1520 1522 1525 1527 1529 1531 1532 1534 1535 1536 1537 1538 1539 1539 1540 1540
1471 1476 1476 1475 1473 1486 1464 1449 1451 1455 1456 1456 1459 1462 1465 1471 1476 1481 1485 1488 1492 1496 1500 1505 1508 1511 1514 1517 1520 1523 1525 1527 1529 1531 1533 1535 1536 1537 1538 1539 1540 1540 1541 1541
1466 1473 1477 1476 1477 1472 1458 1449 1451 1457 1459 1455 1458 1462 1466 1470 1476 1481 1485 1487 1491 1496 1500 1503 1507 1510 1514 1517 1520 1522 1525 1527 1530 1532 1534 1535 1537 1538 1539 1539 1540 1541 1541 1542
1464 1469 1477 1476 1480 1479 1460 1449 1450 1455 1464 1457 1459 1463 1467 1471 1476 1482 1485 1488 1492 1496 1500 1503 1507 1511 1514 1517 1520 1522 1525 1527 1530 1532 1534 1536 1537 1538 1539 1540 1541 1542 1543 1543
1467 1472 1475 1475 1475 1465 1449 1448 1452 1469 1467 1459 1461 1464 1469 1472 1475 1481 1484 1487 1492 1496 1500 1504 1507 1511 1514 1517 1520 1522 1525 1528 1530 1532 1534 1536 1538 1539 1540 1541 1542 1543 1544 1544
1463 1468 1472 1471 1474 1469 1450 1449 1455 1460 1460 1461 1463 1466 1471 1474 1478 1481 1484 1487 1492 1496 1501 1505 1508 1511 1514 1517 1520 1522 1525 1528 1530 1532 1534 1536 1537 1539 1540 1541 1542 1544 1545 1545
1454 1455 1457 1461 1463 1457 1454 1456 1459 1460 1462 1463 1466 1469 1472 1476 1480 1483 1487 1491 1495 1499 1502 1505 1508 1511 1515 1518 1521 1523 1525 1527 1530 1532 1534 1536 1538 1539 1540 1542 1542 1544 1545 1546
1452 1451 1453 1456 1457 1457 1458 1459 1461 1463 1464 1466 1468 1470 1473 1477 1481 1484 1489 1493 1496 1499 1502 1505 1508 1511 1515 1518 1521 1523 1525 1528 1531 1533 1535 1536 1538 1539 1541 1542 1543 1544 1545 1546
1454 1453 1454 1456 1456 1458 1460 1463 1464 1465 1466 1467 1468 1471 1474 1477 1480 1484 1489 1494 1497 1500 1503 1506 1509 1512 1515 1518 1521 1523 1526 1528 1530 1533 1535 1536 1538 1539 1540 1542 1543 1544 1545 1546
1457 1456 1457 1459 1459 1460 1462 1463 1464 1466 1467 1468 1470 1473 1476 1478 1482 1485 1490 1495 1498 1501 1504 1507 1510 1513 1515 1518 1520 1523 1525 1528 1530 1532 1534 1536 1538 1539 1540 1541 1543 1544 1545 1546